Dikgonye, Botswana

4:41 AM CAT on February 28, 2017 (GMT +0200)
Sir Seretse Khama International | | Change Station

Elev 3297 ft 24.56 °S, 25.92 °E | Updated 41 minutes ago

Mostly Cloudy
Mostly Cloudy
66 °F
Feels Like 66 °F
N
7
Wind Variable Wind from East

Today
High -- | Low -- °F
--% Chance of Precip.
Yesterday
High -- | Low -- °F
Precip. -- in
Pressure 30.06 in
Visibility -9999.0 miles
Clouds
Dew Point 63 °F
Humidity 88%
Rainfall 0.00 in
Snow Depth Not available.
6:10 AM 6:46 PM
Waxing Crescent, 3% visible
METAR FBSK 280200Z 08006KT 050V140 CAVOK 19/17 Q1018 NOSIG
Pressure 30.06 in
Visibility -9999.0 miles
Clouds
Dew Point 63 °F
Humidity 88%
Rainfall 0.00 in
Snow Depth Not available.
6:10 AM 6:46 PM
Waxing Crescent, 3% visible
METAR FBSK 280200Z 08006KT 050V140 CAVOK 19/17 Q1018 NOSIG

Get Your Daily Forecast Email!

Thanks for signing up!

Be on the lookout for a verification email in your inbox.

You'll start receiving the daily forecast at 8 AM.

×

10-Day Weather Forecast

No radar image for this location.
×

Almanac

Astronomy

Feb. 28, 2017 Rise Set
Actual Time
Civil Twilight
Nautical Twilight
Astronomical Twilight
Moon
Length of Visible Light
Length of Day
Tomorrow will be .
, % of the Moon is Illuminated

Today's Extremes

Country Highs Country Lows

Community

WunderPhotos

Upload Photos

1,962,540 photos uploaded!

WunderBlog® & News

Nearby

Air Quality

  Air Quality AQ Index Pollutant
Not available.

Snow Depth

Station Depth Elevation

Earthquake Activity

City Distance Mag. Time & Date
Minimum magnitude displayed is 2.5.

Coastal Water Temperatures

Place Temperature

Stations

Nearby Weather Stations

Station Location Temp. Windchill Dew Point Humidity Wind Precip. Elev Updated Type